Location: Tel Aviv
(32.0670°N, 34.7670°E)
Time: 03:18:56
(UTC+03:00)

Tiros 1 - Pass Details

Date: 28 January 2022
Orbit: 629 x 663 km, 48.4° (Epoch: 26 May)

Event Time Altitude Azimuth Distance (km) Brightness Sun altitude
Rises 05:29:31 0° 289° (WNW) 2,962 - -14.5°
Reaches altitude 10° 05:32:53 10° 264° (W) 2,040 - -13.9°
Exits shadow 05:34:26 13° 245° (WSW) 1,814 9.0 -13.5°
Maximum altitude 05:35:19 14° 233° (SW) 1,774 9.0 -13.3°
Drops below altitude 10° 05:37:43 10° 201° (SSW) 2,022 9.6 -12.9°
Sets 05:41:03 0° 176° (S) 2,919 10.8 -12.2°
